Weather History for LIRE - October, 2013

Change the Weather History Date:

Sunday, October 27, 2013

  Actual Average Record
Temperature  
Mean Temperature 66 °F -  
Max Temperature 73 °F 64 °F 78 °F (2006)
Min Temperature 59 °F 48 °F 46 °F (1996)
Cooling Degree Days 1    
Growing Degree Days 16 (Base 50)    
Moisture  
Dew Point 62 °F    
Average Humidity 89    
Maximum Humidity 94    
Minimum Humidity 64    
Precipitation  
Precipitation 0.00 in 0.16 in - ()
Sea Level Pressure  
Sea Level Pressure 30.21 in    
Wind  
Wind Speed 4 mph ()    
Max Wind Speed 9 mph    
Max Gust Speed -    
Visibility 4.9 miles    
Events      
Averages and records for this station are not official NWS values.
T = Trace of Precipitation, MM = Missing Value Source: Averaged Metar Reports

Daily Weather History Graph

Daily Weather History Graph

Search for Another Location

Airport or City:

Trip Planner

Search our weather history database for the weather conditions in past years. The results will help you decide how hot, cold, wet, or windy it might be!

Date:

Astronomy

Oct. 27, 2013 Rise Set
Actual Time 6:36 AM CET 5:11 PM CET
Civil Twilight 6:07 AM CET 5:39 PM CET
Nautical Twilight 5:35 AM CET 6:12 PM CET
Astronomical Twilight 5:02 AM CET 6:44 PM CET
Moon No Moon Rise 1:15 PM CET (10/27)
Length of Visible Light 11h 32m
Length of Day
10h 35m
Last Quarter, 45% of the Moon is Illuminated
Oct 27
Last Quarter
Nov 3
New
Nov 10
First Quarter
Nov 17
Full
Nov 25
Last Quarter

Hourly Weather History & Observations

Time (CET) Temp. Dew Point Humidity Pressure Visibility Wind Dir Wind Speed Gust Speed Precip Events Conditions
12:55 AM 59.0 °F 57.2 °F 94% 30.21 in 3.1 mi NE 2.3 mph - N/A   Mist
1:55 AM 59.0 °F 57.2 °F 94% 30.21 in 3.1 mi ENE 4.6 mph - N/A   Mist
2:00 AM 59 °F 58 °F 93% 30.23 in 3 mi ENE 4.6 mph - -   Mist
2:55 AM 32.0 °F 30.2 °F 93% 30.21 in 2.2 mi NW 2.3 mph - N/A   Mostly Cloudy
2:55 AM 60.8 °F 59.0 °F 94% 30.21 in 6.2 mi NNW 3.5 mph - N/A   Mostly Cloudy
4:00 AM 62 °F 60 °F 93% 30.23 in 2 mi NE 4.6 mph - -   Mist
4:55 AM 57.2 °F 55.4 °F 94% 30.21 in 1.9 mi NE 4.6 mph - N/A   Scattered Clouds
5:55 AM 62.6 °F 60.8 °F 94% 30.21 in 1.9 mi NNE 5.8 mph - N/A   Mostly Cloudy
6:55 AM 64.4 °F 62.6 °F 94% 30.21 in 1.9 mi NE 6.9 mph - N/A   Overcast
7:00 AM 64 °F 62 °F 90% 30.23 in 1 mi NE 6.9 mph - -   Mist
7:55 AM 64.4 °F 62.6 °F 94% 30.21 in 1.9 mi NE 6.9 mph - N/A   Mostly Cloudy
8:55 AM 64.4 °F 62.6 °F 94% 30.21 in 3.1 mi NNE 6.9 mph - N/A   Mostly Cloudy
9:21 AM 66.2 °F 64.4 °F 94% 30.21 in 5.0 mi NNE 8.1 mph - N/A   Mostly Cloudy
9:55 AM 66.2 °F 64.4 °F 94% 30.24 in 6.2 mi NE 9.2 mph - N/A   Mostly Cloudy
10:00 AM 67 °F 65 °F 90% 30.24 in 6 mi NE 9.2 mph - -   Mostly Cloudy
10:55 AM 69.8 °F 64.4 °F 83% 30.24 in 6.2 mi ENE 3.5 mph - N/A   Mostly Cloudy
11:55 AM 71.6 °F 64.4 °F 78% 30.24 in 6.2 mi East 2.3 mph - N/A   Scattered Clouds
12:55 PM 73.4 °F 62.6 °F 69% 30.24 in 6.2 mi East 2.3 mph - N/A   Scattered Clouds
1:00 PM 73 °F 63 °F 64% 30.25 in 9 mi East 2.3 mph - -   Partly Cloudy
1:55 PM 73.4 °F 64.4 °F 73% 30.18 in 6.2 mi SSW 8.1 mph - N/A   Partly Cloudy
2:55 PM 71.6 °F 66.2 °F 83% 30.18 in 6.2 mi SSW 8.1 mph - N/A   Partly Cloudy
3:55 PM 71.6 °F 66.2 °F 83% 30.18 in - SSW 8.1 mph - N/A   Clear
4:00 PM 71 °F 66 °F 79% 30.20 in 12 mi SSW 8.1 mph - -  
4:55 PM 69.8 °F 66.2 °F 88% 30.18 in - SSW 3.5 mph - N/A   Clear
5:55 PM 66.2 °F 64.4 °F 94% 30.21 in - West 1.2 mph - N/A   Clear
6:55 PM 66.2 °F 64.4 °F 94% 30.18 in - ESE 2.3 mph - N/A   Clear
7:00 PM 73 °F 71 °F 91% 30.21 in 7 mi ESE 2.3 mph - -  
7:55 PM 64.4 °F 62.6 °F 94% 30.21 in - ESE 2.3 mph - N/A   Clear
8:55 PM 64.4 °F 62.6 °F 94% 30.18 in 6.2 mi East 4.6 mph - N/A   Partly Cloudy
9:55 PM 62.6 °F 60.8 °F 94% 30.21 in 6.2 mi ENE 3.5 mph - N/A   Partly Cloudy
10:00 PM 63 °F 62 °F 93% 30.22 in 6 mi ENE 3.5 mph - -   Scattered Clouds
10:55 PM 66.2 °F 64.4 °F 94% 30.21 in 6.2 mi East 6.9 mph - N/A   Scattered Clouds